Regional Weather Roundup
Issued by NWS

Home | Current Version | Previous Version | Graphics & Text | Print | Product List | Glossary On
Versions: 1 2 3 4 5 6 7 8 9 10 11 12 13 14 15 16 17 18 19 20 21 22 23 24 25 26 27 28 29 30 31 32 33 34 35 36 37 38 39 40 41 42 43 44 45 46 47 48 49 50
000
ASUS43 KDTX 161901
RWRMI
MICHIGAN HOURLY REGIONAL WEATHER ROUNDUP
NATIONAL WEATHER SERVICE DETROIT/PONTIAC MI
200 PM EST THU NOV 16 2017

NOTE: "FAIR" INDICATES FEW OR NO CLOUDS BELOW 12,000 FEET WITH NO
SIGNIFICANT WEATHER AND/OR OBSTRUCTION TO VISIBILITY.

MIZ047>049-052>055-059>063-066>070-074>076-081>083-162000-
SOUTHEAST LOWER MICHIGAN

CITY           SKY/WX    TMP DP  RH WIND       PRES   REMARKS
ADRIAN         CLOUDY    39  28  64 NW12G20   30.11R WCI  32
ALMA           CLOUDY    39  31  73 NW15      30.11R WCI  31
ANN ARBOR      CLOUDY    39  29  67 W15G30    30.08R WCI  31
BAD AXE        CLOUDY    36  28  75 NW16G22   30.04R WCI  26
CARO           CLOUDY    39  30  70 NW16G22   30.05R WCI  30
DETROIT CITY   CLOUDY    41  29  62 NW14G25   30.06R
DETROIT        CLOUDY    41  29  62 NW16      30.08R
FLINT          CLOUDY    39  29  67 NW16      30.08R WCI  30
GROSSE ILE     CLOUDY    41  30  66 W13G20    30.07R
HILLSDALE      CLOUDY    37  28  70 NW18G24   30.10R WCI  27
HOWELL         CLOUDY    38  31  74 W16G23    30.08R WCI  30

CITY           SKY/WX    TMP DP  RH WIND       PRES   REMARKS
JACKSON        CLOUDY    39  27  62 NW14G21   30.10R WCI  31
LAMBERTVILLE   CLOUDY    43  30  60 NW10      30.10R
LANSING        CLOUDY    39  30  70 NW17      30.11R WCI  30
LAPEER         CLOUDY    39  30  69 NW12G18   30.05R WCI  32
MASON          CLOUDY    40  30  69 NW15G21   30.10R WCI  31
MONROE         CLOUDY    42  29  62 NW16G23   30.08R
MT. CLEMENS    CLOUDY    41  31  68 W14G24    30.03R
PONTIAC        CLOUDY    38  29  70 NW15G23   30.05R WCI  29
PORT HOPE        N/A     37  30  75 NW16G26   30.01R WCI  28
PORT HURON     CLOUDY    39  30  70 NW13G23   30.03R WCI  32
TRI CITIES     CLOUDY    41  30  65 NW22      30.08R
MIDLAND        CLOUDY    40  30  66 NW14G20   30.08R WCI  32
TROY           CLOUDY    42  30  63 NW8G17    30.08R
SAGINAW HB     CLOUDY    39  32  75 NW16      30.06R WCI  30
$$
MIZ043>046-050>051-056>058-064>065-071>073-077>080-162000-
SOUTHWEST LOWER MICHIGAN

CITY           SKY/WX    TMP DP  RH WIND       PRES   REMARKS
BATTLE CREEK   CLOUDY    40  29  64 NW15      30.14R WCI  32
BENTON HARBOR  CLOUDY    39  29  67 NW9G16    30.20R WCI  33
BIG RAPIDS     PTSUNNY   37  29  74 N14G20    30.11R WCI  28
COLDWATER      PTSUNNY   40  29  65 NW14G22   30.13R WCI  33
FREMONT        PTSUNNY   38  33  84 NW14      30.15R WCI  29
HOLLAND        PTSUNNY   41  34  76 N12G22    30.18R
GRAND RAPIDS   PTSUNNY   39  30  70 NW20      30.14R WCI  29
IONIA          CLOUDY    40  29  67 NW9G20    30.11S WCI  33
KALAMAZOO      PTSUNNY   40  30  67 NW13      30.15R WCI  32
LUDINGTON      LGT RAIN  35  33  91 N9        30.17R WCI  28
MARSHALL       CLOUDY    39  28  63 W9        30.12R WCI  33
MOUNT PLEASANT CLOUDY    40  27  59 NW13G20   30.09R WCI  32
MUSKEGON       LGT RAIN  38  32  79 N13       30.18R WCI  30
SOUTH HAVEN    CLOUDY    39  32  75 NW10G17   30.19R WCI  32
$$
MIZ016>042-162000-
NORTHERN LOWER MICHIGAN

CITY           SKY/WX    TMP DP  RH WIND       PRES   REMARKS
ALPENA         CLOUDY    33  26  75 NW20G26   30.07R WCI  21
BEAVER ISLAND  PTSUNNY   32  23  68 N9G16     30.17R WCI  24
BELLAIRE       CLOUDY    33  29  86 NW10G22   30.14S WCI  25
CADILLAC       CLOUDY    32  29  87 N9G20     30.10R WCI  24
CHARLEVOIX     CLOUDY    33  26  73 N17G24    30.17R WCI  22
FRANKFORT      CLOUDY    36  30  80 N12G18    30.16S WCI  28
GAYLORD        CLOUDY    29  23  78 NW7       30.08R WCI  22
GRAYLING       PTSUNNY   32  27  83 NW15G24   30.10R WCI  22
HARBOR SPRINGS CLOUDY    32  24  70 N10G16    30.13R WCI  24
HOUGHTON LAKE  LGT SNOW  34  29  82 NW17G23   30.08S WCI  23
MANISTEE       LGT RAIN  36  31  82 N9G18     30.17R WCI  29
OSCODA         CLOUDY    34  25  68 NW21      30.05R WCI  23
PELLSTON       CLOUDY    33  24  69 NW15G23   30.13R WCI  23
ROGERS CITY    CLOUDY    32  25  75 NW15G24   30.10R WCI  22
TRAVERSE CITY  CLOUDY    35  27  72 NW14      30.15R WCI  26
$$
MIZ007>008-015-162000-
EASTERN UPPER MICHIGAN

CITY           SKY/WX    TMP DP  RH WIND       PRES   REMARKS
KINROSS        PTSUNNY   31  22  69 N18G25    30.10R WCI  19
MACKINAC ISLAN CLOUDY    33  23  67 N12G22    30.11R WCI  24
NEWBERRY       CLOUDY    28  22  81 N14G23    30.15R WCI  16
S. S. MARIE    MOSUNNY   32  17  54 N8        30.11R WCI  25
MUNISING         N/A     32  27  81 N18       30.21R WCI  20
$$
MIZ004>006-011>014-085-162000-
CENTRAL UPPER MICHIGAN

CITY           SKY/WX    TMP DP  RH WIND       PRES   REMARKS
MANISTIQUE     CLOUDY    29  19  65 N14G21    30.18S WCI  19
ESCANABA       CLOUDY    31  23  72 NW10G16   30.22R WCI  22
MENOMINEE      CLOUDY    33  23  66 N10       30.24R WCI  25
SAWYER-GWINN   CLOUDY    27  23  86 N14G20    30.20R WCI  15
$$
MIZ001>003-009>011-084-162000-
WESTERN UPPER MICHIGAN

CITY           SKY/WX    TMP DP  RH WIND       PRES   REMARKS
IRON MOUNTAIN  CLOUDY    30  20  66 N5        30.20R WCI  25
HOUGHTON       CLOUDY    25  18  74 NE6       30.23S WCI  18
COPPER HARBOR    N/A     27  21  78 NE12      30.25F WCI  17
IRONWOOD       CLOUDY    28  23  81 E6        30.22S WCI  22
$$

ABBREVIATIONS USED IN REMARKS
   TC - TEMPERATURE IN CELSIUS
  WCI - WIND CHILL INDEX
   HX - HEAT INDEX
  VSB - VISIBILITY





USA.gov is the U.S. government's official web portal to all federal, state and local government web resources and services.